| time (UTC) | temp F | wind direction | speed MPH | gust MPH | rain 1hr in | rain 24hr in | rain mn in | humidity % | barometer mb |
| 20260503221537 | 62 | 311 | 9.0 | 16.0 | 0.00 | 0.03 | 0.00 | 70 | 1008.8 |
| 20260503221023 | 62 | 313 | 9.0 | 17.0 | 0.00 | 0.03 | 0.00 | 70 | 1008.9 |
| 20260503220523 | 62 | 319 | 8.0 | 17.0 | 0.00 | 0.03 | 0.00 | 69 | 1008.8 |
| 20260503220047 | 63 | 297 | 7.0 | 14.0 | 0.00 | 0.03 | 0.00 | 69 | 1008.9 |
| 20260503215523 | 63 | 336 | 7.0 | 15.0 | 0.00 | 0.03 | 0.00 | 69 | 1008.9 |
| 20260503215024 | 63 | 304 | 7.0 | 15.0 | 0.00 | 0.03 | 0.00 | 69 | 1008.9 |
| 20260503214539 | 63 | 309 | 7.0 | 15.0 | 0.00 | 0.03 | 0.00 | 68 | 1009.0 |
| 20260503214023 | 64 | 321 | 8.0 | 15.0 | 0.00 | 0.03 | 0.00 | 67 | 1009.0 |
| 20260503213523 | 64 | 281 | 7.0 | 15.0 | 0.00 | 0.03 | 0.00 | 67 | 1009.1 |
| 20260503213038 | 64 | 296 | 7.0 | 16.0 | 0.00 | 0.03 | 0.00 | 67 | 1009.1 |
| 20260503212525 | 64 | 306 | 8.0 | 16.0 | 0.00 | 0.03 | 0.00 | 66 | 1009.0 |
| 20260503212023 | 65 | 285 | 8.0 | 17.0 | 0.00 | 0.03 | 0.00 | 65 | 1009.1 |
| 20260503211546 | 65 | 302 | 8.0 | 17.0 | 0.00 | 0.03 | 0.00 | 65 | 1009.0 |
| 20260503211023 | 65 | 327 | 7.0 | 14.0 | 0.00 | 0.03 | 0.00 | 65 | 1009.1 |
| 20260503210522 | 65 | 288 | 7.0 | 13.0 | 0.00 | 0.03 | 0.00 | 66 | 1009.1 |
| 20260503210043 | 65 | 273 | 6.0 | 11.0 | 0.00 | 0.03 | 0.00 | 65 | 1009.2 |
| 20260503205524 | 66 | 320 | 5.0 | 11.0 | 0.00 | 0.03 | 0.00 | 65 | 1009.2 |
| 20260503205024 | 66 | 290 | 6.0 | 14.0 | 0.00 | 0.03 | 0.00 | 65 | 1009.2 |
| 20260503204536 | 66 | 285 | 4.0 | 14.0 | 0.00 | 0.03 | 0.00 | 65 | 1009.2 |
| 20260503204023 | 66 | 316 | 5.0 | 12.0 | 0.00 | 0.03 | 0.00 | 63 | 1009.3 |
| 20260503203523 | 66 | 329 | 6.0 | 11.0 | 0.00 | 0.03 | 0.00 | 64 | 1009.3 |
| 20260503203053 | 66 | 292 | 5.0 | 10.0 | 0.00 | 0.03 | 0.00 | 62 | 1009.4 |
| 20260503202522 | 66 | 336 | 4.0 | 10.0 | 0.00 | 0.03 | 0.00 | 64 | 1009.3 |
| 20260503202026 | 66 | 288 | 5.0 | 10.0 | 0.00 | 0.03 | 0.00 | 64 | 1009.5 |
| 20260503201544 | 66 | 289 | 5.0 | 10.0 | 0.00 | 0.03 | 0.00 | 63 | 1009.4 |
| 20260503201023 | 67 | 339 | 4.0 | 10.0 | 0.00 | 0.03 | 0.00 | 63 | 1009.6 |
| 20260503200523 | 67 | 310 | 4.0 | 10.0 | 0.00 | 0.03 | 0.00 | 62 | 1009.6 |
| 20260503200039 | 67 | 294 | 5.0 | 10.0 | 0.00 | 0.03 | 0.00 | 62 | 1009.7 |
| 20260503195524 | 67 | 306 | 5.0 | 10.0 | 0.00 | 0.03 | 0.00 | 61 | 1009.8 |
| 20260503195027 | 67 | 306 | 4.0 | 10.0 | 0.00 | 0.03 | 0.00 | 63 | 1009.7 |
| 20260503194555 | 67 | 313 | 5.0 | 11.0 | 0.00 | 0.03 | 0.00 | 61 | 1009.7 |
| 20260503194023 | 66 | 321 | 6.0 | 12.0 | 0.00 | 0.03 | 0.00 | 62 | 1009.8 |
| 20260503193525 | 66 | 300 | 5.0 | 12.0 | 0.00 | 0.03 | 0.00 | 62 | 1009.8 |
| 20260503193043 | 66 | 301 | 5.0 | 12.0 | 0.00 | 0.03 | 0.00 | 62 | 1009.9 |
| 20260503192522 | 66 | 350 | 6.0 | 12.0 | 0.00 | 0.03 | 0.00 | 61 | 1009.8 |
| 20260503192022 | 66 | 300 | 5.0 | 11.0 | 0.00 | 0.03 | 0.00 | 61 | 1009.9 |
| 20260503191544 | 66 | 309 | 5.0 | 11.0 | 0.00 | 0.03 | 0.00 | 61 | 1009.9 |
| 20260503191022 | 66 | 340 | 5.0 | 9.0 | 0.00 | 0.03 | 0.00 | 62 | 1009.9 |
| 20260503190523 | 67 | 304 | 4.0 | 9.0 | 0.00 | 0.03 | 0.00 | 62 | 1010.0 |
| 20260503190042 | 67 | 308 | 3.0 | 8.0 | 0.00 | 0.03 | 0.00 | 63 | 1010.0 |
| 20260503185523 | 67 | 330 | 3.0 | 8.0 | 0.00 | 0.03 | 0.00 | 64 | 1010.1 |
| 20260503185023 | 68 | 292 | 3.0 | 8.0 | 0.00 | 0.03 | 0.00 | 65 | 1010.1 |
| 20260503184539 | 68 | 298 | 3.0 | 8.0 | 0.00 | 0.03 | 0.00 | 64 | 1010.1 |
| 20260503184023 | 69 | 301 | 3.0 | 6.0 | 0.00 | 0.03 | 0.00 | 63 | 1010.2 |
| 20260503183522 | 69 | 302 | 2.0 | 6.0 | 0.00 | 0.03 | 0.00 | 66 | 1010.1 |
| 20260503183039 | 68 | 312 | 2.0 | 6.0 | 0.00 | 0.03 | 0.00 | 66 | 1010.2 |
| 20260503182522 | 67 | 323 | 3.0 | 6.0 | 0.00 | 0.03 | 0.00 | 67 | 1010.2 |
| 20260503182023 | 67 | 319 | 3.0 | 5.0 | 0.00 | 0.03 | 0.00 | 70 | 1010.2 |
| 20260503181542 | 66 | 304 | 2.0 | 7.0 | 0.00 | 0.03 | 0.00 | 71 | 1010.2 |
| 20260503181023 | 65 | 319 | 2.0 | 7.0 | 0.00 | 0.03 | 0.00 | 72 | 1010.2 |
| 20260503180523 | 65 | 292 | 2.0 | 4.0 | 0.00 | 0.03 | 0.00 | 71 | 1010.2 |
| 20260503180055 | 66 | 281 | 1.0 | 5.0 | 0.00 | 0.03 | 0.00 | 71 | 1010.2 |
| 20260503175523 | 66 | 301 | 2.0 | 5.0 | 0.00 | 0.03 | 0.00 | 71 | 1010.3 |
| 20260503175022 | 66 | 294 | 1.0 | 4.0 | 0.00 | 0.03 | 0.00 | 70 | 1010.3 |
| 20260503174543 | 67 | 281 | 2.0 | 4.0 | 0.00 | 0.03 | 0.00 | 69 | 1010.3 |
| 20260503174022 | 67 | 290 | 2.0 | 4.0 | 0.00 | 0.03 | 0.00 | 67 | 1010.3 |
| 20260503173522 | 67 | 0 | 1.0 | 4.0 | 0.00 | 0.03 | 0.00 | 66 | 1010.3 |
| 20260503173041 | 69 | 289 | 2.0 | 6.0 | 0.00 | 0.03 | 0.00 | 64 | 1010.3 |
| 20260503172522 | 71 | 282 | 2.0 | 6.0 | 0.00 | 0.03 | 0.00 | 57 | 1010.3 |
| 20260503172023 | 74 | 355 | 1.0 | 3.0 | 0.00 | 0.03 | 0.00 | 56 | 1010.4 |
| 20260503171546 | 74 | 18 | 0.0 | 3.0 | 0.00 | 0.03 | 0.00 | 56 | 1010.4 |
| 20260503171026 | 73 | 0 | 0.0 | 3.0 | 0.00 | 0.03 | 0.00 | 55 | 1010.4 |
| 20260503170523 | 72 | 0 | 0.0 | 3.0 | 0.00 | 0.03 | 0.00 | 55 | 1010.4 |
| 20260503150522 | 60 | 0 | 2.0 | 7.0 | 0.00 | 0.03 | 0.00 | 77 | 1010.6 |
| 20260503131025 | 53 | 0 | 0.0 | 0.0 | 0.00 | 0.03 | 0.00 | 90 | 1010.4 |
| 20260503130523 | 53 | 0 | 0.0 | 0.0 | 0.00 | 0.03 | 0.00 | 89 | 1010.4 |
| 20260503110524 | 54 | 74 | 1.0 | 6.0 | 0.00 | 0.03 | 0.00 | 96 | 1010.8 |
| 20260503081538 | 50 | 0 | 0.0 | 3.0 | 0.00 | 0.03 | 0.00 | 98 | 1011.1 |
| 20260503081026 | 50 | 0 | 0.0 | 2.0 | 0.00 | 0.03 | 0.00 | 98 | 1011.2 |
| 20260503080523 | 50 | 0 | 0.0 | 3.0 | 0.00 | 0.03 | 0.00 | 98 | 1011.2 |
| 20260503072525 | 49 | 0 | 0.0 | 2.0 | 0.00 | 0.03 | 0.00 | 98 | 1011.4 |
| 20260503072023 | 49 | 0 | 0.0 | 2.0 | 0.00 | 0.03 | 0.00 | 98 | 1011.3 |
| 20260503071556 | 49 | 0 | 0.0 | 2.0 | 0.00 | 0.03 | 0.00 | 98 | 1011.3 |
| 20260503071025 | 49 | 0 | 0.0 | 3.0 | 0.00 | 0.03 | 0.00 | 98 | 1011.3 |
| 20260503070527 | 49 | 0 | 1.0 | 3.0 | 0.00 | 0.03 | 0.00 | 98 | 1011.2 |
| 20260503060105 | 48 | 0 | 0.0 | 2.0 | 0.00 | 0.03 | 0.03 | 98 | 1011.1 |
| 20260503055023 | 48 | 84 | 1.0 | 3.0 | 0.00 | 0.03 | 0.03 | 98 | 1011.3 |
| 20260503054549 | 48 | 84 | 1.0 | 3.0 | 0.00 | 0.03 | 0.03 | 97 | 1011.3 |
| 20260503054024 | 48 | 28 | 0.0 | 2.0 | 0.00 | 0.03 | 0.03 | 97 | 1011.2 |
| 20260503053524 | 48 | 0 | 0.0 | 1.0 | 0.00 | 0.03 | 0.03 | 97 | 1011.3 |
| 20260503053042 | 48 | 0 | 0.0 | 1.0 | 0.00 | 0.03 | 0.03 | 98 | 1011.2 |
| 20260503052525 | 49 | 0 | 0.0 | 0.0 | 0.00 | 0.03 | 0.03 | 98 | 1011.3 |
| 20260503052026 | 49 | 0 | 0.0 | 0.0 | 0.00 | 0.03 | 0.03 | 98 | 1011.3 |
| 20260503051542 | 49 | 0 | 0.0 | 1.0 | 0.00 | 0.03 | 0.03 | 97 | 1011.2 |
| 20260503051024 | 49 | 0 | 0.0 | 1.0 | 0.00 | 0.03 | 0.03 | 98 | 1011.1 |
| 20260503050524 | 49 | 0 | 0.0 | 0.0 | 0.00 | 0.03 | 0.03 | 98 | 1011.1 |
| 20260503050042 | 49 | 0 | 0.0 | 0.0 | 0.00 | 0.03 | 0.03 | 98 | 1011.2 |
| 20260503045524 | 49 | 0 | 0.0 | 1.0 | 0.00 | 0.03 | 0.03 | 98 | 1011.2 |
| 20260503045027 | 49 | 0 | 0.0 | 2.0 | 0.00 | 0.03 | 0.03 | 98 | 1011.2 |
| 20260503044540 | 49 | 0 | 0.0 | 2.0 | 0.00 | 0.03 | 0.03 | 98 | 1011.1 |
| 20260503044024 | 49 | 303 | 0.0 | 1.0 | 0.01 | 0.03 | 0.03 | 98 | 1011.1 |
| 20260503043526 | 48 | 0 | 0.0 | 0.0 | 0.01 | 0.03 | 0.03 | 98 | 1011.0 |
| 20260503043039 | 48 | 0 | 0.0 | 0.0 | 0.01 | 0.03 | 0.03 | 97 | 1011.0 |
| 20260503042524 | 48 | 0 | 0.0 | 0.0 | 0.02 | 0.03 | 0.03 | 97 | 1011.0 |
| 20260503042024 | 48 | 0 | 0.0 | 0.0 | 0.02 | 0.03 | 0.03 | 97 | 1010.9 |
| 20260503041539 | 48 | 0 | 0.0 | 0.0 | 0.02 | 0.03 | 0.03 | 97 | 1010.9 |
| 20260503041026 | 48 | 0 | 0.0 | 3.0 | 0.02 | 0.03 | 0.03 | 97 | 1010.9 |
| 20260503040524 | 49 | 0 | 0.0 | 5.0 | 0.02 | 0.03 | 0.03 | 97 | 1010.9 |
| 20260503040042 | 49 | 0 | 1.0 | 5.0 | 0.03 | 0.03 | 0.03 | 97 | 1010.8 |
| 20260503035523 | 49 | 294 | 1.0 | 6.0 | 0.03 | 0.03 | 0.03 | 97 | 1010.8 |
| 20260503035023 | 49 | 294 | 2.0 | 9.0 | 0.03 | 0.03 | 0.03 | 98 | 1010.8 |
| 20260503034543 | 49 | 295 | 2.0 | 9.0 | 0.02 | 0.02 | 0.02 | 98 | 1010.6 |
| 20260503034025 | 49 | 289 | 4.0 | 10.0 | 0.02 | 0.02 | 0.02 | 97 | 1010.7 |
| 20260503033523 | 49 | 293 | 5.0 | 10.0 | 0.02 | 0.02 | 0.02 | 97 | 1010.7 |
| 20260503033043 | 49 | 275 | 4.0 | 11.0 | 0.02 | 0.02 | 0.02 | 97 | 1010.7 |
| 20260503032525 | 49 | 324 | 5.0 | 11.0 | 0.01 | 0.01 | 0.01 | 97 | 1010.6 |
| 20260503032023 | 49 | 323 | 5.0 | 10.0 | 0.01 | 0.01 | 0.01 | 97 | 1010.6 |
| 20260503031548 | 49 | 290 | 4.0 | 10.0 | 0.01 | 0.01 | 0.01 | 97 | 1010.5 |
| 20260503031025 | 49 | 295 | 4.0 | 11.0 | 0.01 | 0.01 | 0.01 | 97 | 1010.4 |
| 20260503030524 | 49 | 340 | 5.0 | 11.0 | 0.01 | 0.01 | 0.01 | 97 | 1010.5 |
| 20260503030047 | 49 | 284 | 5.0 | 12.0 | 0.00 | 0.00 | 0.00 | 97 | 1010.5 |
| 20260503025523 | 49 | 302 | 6.0 | 12.0 | 0.00 | 0.00 | 0.00 | 97 | 1010.4 |
| 20260503025024 | 49 | 280 | 7.0 | 12.0 | 0.00 | 0.00 | 0.00 | 97 | 1010.4 |
| 20260503024543 | 50 | 288 | 5.0 | 12.0 | 0.00 | 0.00 | 0.00 | 97 | 1010.3 |
| 20260503024026 | 50 | 299 | 5.0 | 12.0 | 0.00 | 0.00 | 0.00 | 97 | 1010.3 |
| 20260503023523 | 50 | 288 | 6.0 | 13.0 | 0.00 | 0.00 | 0.00 | 97 | 1010.3 |
| 20260503023046 | 50 | 331 | 7.0 | 13.0 | 0.00 | 0.00 | 0.00 | 97 | 1010.4 |
| 20260503022523 | 50 | 286 | 6.0 | 11.0 | 0.00 | 0.00 | 0.00 | 97 | 1010.4 |
| 20260503022023 | 50 | 339 | 5.0 | 11.0 | 0.00 | 0.00 | 0.00 | 97 | 1010.4 |
| 20260503021543 | 50 | 290 | 6.0 | 13.0 | 0.00 | 0.00 | 0.00 | 97 | 1010.4 |
| 20260503021023 | 50 | 313 | 6.0 | 13.0 | 0.00 | 0.00 | 0.00 | 96 | 1010.4 |
| 20260503020523 | 50 | 306 | 7.0 | 11.0 | 0.00 | 0.00 | 0.00 | 96 | 1010.4 |
| 20260503020042 | 50 | 338 | 6.0 | 11.0 | 0.00 | 0.00 | 0.00 | 97 | 1010.4 |
| 20260503015527 | 50 | 296 | 7.0 | 11.0 | 0.00 | 0.00 | 0.00 | 97 | 1010.4 |
| 20260503015025 | 50 | 314 | 5.0 | 11.0 | 0.00 | 0.00 | 0.00 | 97 | 1010.4 |
| 20260503014549 | 50 | 304 | 6.0 | 12.0 | 0.00 | 0.00 | 0.00 | 96 | 1010.5 |
| 20260503014020 | 50 | 329 | 7.0 | 12.0 | 0.00 | 0.00 | 0.00 | 96 | 1010.6 |
| 20260503013523 | 50 | 302 | 6.0 | 12.0 | 0.00 | 0.00 | 0.00 | 96 | 1010.6 |
| 20260503013039 | 50 | 335 | 7.0 | 13.0 | 0.00 | 0.00 | 0.00 | 96 | 1010.7 |
| 20260503012530 | 50 | 299 | 8.0 | 14.0 | 0.00 | 0.00 | 0.00 | 96 | 1010.7 |
| 20260503012026 | 50 | 302 | 7.0 | 14.0 | 0.00 | 0.00 | 0.00 | 96 | 1010.8 |
| 20260503011542 | 50 | 309 | 7.0 | 14.0 | 0.00 | 0.00 | 0.00 | 96 | 1010.8 |
| 20260503011023 | 50 | 308 | 8.0 | 15.0 | 0.00 | 0.00 | 0.00 | 96 | 1011.0 |
| 20260503010523 | 50 | 342 | 8.0 | 15.0 | 0.00 | 0.00 | 0.00 | 96 | 1011.0 |
| 20260503010042 | 50 | 301 | 9.0 | 15.0 | 0.00 | 0.00 | 0.00 | 96 | 1010.9 |
| 20260503005523 | 50 | 337 | 8.0 | 17.0 | 0.00 | 0.00 | 0.00 | 96 | 1010.9 |
| 20260503005024 | 50 | 295 | 8.0 | 17.0 | 0.00 | 0.00 | 0.00 | 96 | 1011.0 |
| 20260503004541 | 50 | 288 | 8.0 | 16.0 | 0.00 | 0.00 | 0.00 | 96 | 1010.9 |
| 20260503004026 | 50 | 267 | 8.0 | 16.0 | 0.00 | 0.00 | 0.00 | 95 | 1011.0 |
| 20260503003526 | 50 | 315 | 9.0 | 14.0 | 0.00 | 0.00 | 0.00 | 95 | 1011.0 |
| 20260503003039 | 51 | 340 | 8.0 | 14.0 | 0.00 | 0.00 | 0.00 | 95 | 1011.2 |
| 20260503002527 | 51 | 309 | 9.0 | 14.0 | 0.00 | 0.00 | 0.00 | 95 | 1011.2 |
| 20260503002024 | 51 | 294 | 7.0 | 13.0 | 0.00 | 0.00 | 0.00 | 95 | 1011.1 |
| 20260503001552 | 51 | 311 | 7.0 | 13.0 | 0.00 | 0.00 | 0.00 | 95 | 1011.1 |
| 20260503001025 | 51 | 340 | 8.0 | 13.0 | 0.00 | 0.00 | 0.00 | 94 | 1011.1 |
| 20260503000523 | 51 | 319 | 7.0 | 13.0 | 0.00 | 0.00 | 0.00 | 94 | 1011.2 |
| 20260503000046 | 51 | 293 | 6.0 | 14.0 | 0.00 | 0.00 | 0.00 | 94 | 1011.1 |
| 20260502235524 | 51 | 329 | 6.0 | 14.0 | 0.00 | 0.00 | 0.00 | 94 | 1011.3 |
| 20260502235023 | 52 | 327 | 8.0 | 14.0 | 0.00 | 0.00 | 0.00 | 94 | 1011.2 |
| 20260502234544 | 52 | 311 | 7.0 | 14.0 | 0.00 | 0.00 | 0.00 | 94 | 1011.3 |
| 20260502234025 | 52 | 313 | 6.0 | 14.0 | 0.00 | 0.00 | 0.00 | 94 | 1011.4 |
| 20260502233523 | 52 | 290 | 7.0 | 14.0 | 0.00 | 0.00 | 0.00 | 94 | 1011.4 |
| 20260502233045 | 52 | 288 | 8.0 | 14.0 | 0.00 | 0.00 | 0.00 | 93 | 1011.5 |
| 20260502232526 | 52 | 290 | 7.0 | 13.0 | 0.00 | 0.00 | 0.00 | 93 | 1011.7 |
| 20260502232023 | 52 | 301 | 7.0 | 14.0 | 0.00 | 0.00 | 0.00 | 93 | 1011.7 |
| 20260502231541 | 52 | 327 | 6.0 | 14.0 | 0.00 | 0.00 | 0.00 | 93 | 1011.8 |
| 20260502231023 | 52 | 296 | 7.0 | 13.0 | 0.00 | 0.00 | 0.00 | 93 | 1011.9 |
| 20260502230523 | 52 | 312 | 7.0 | 13.0 | 0.00 | 0.00 | 0.00 | 93 | 1011.8 |
| 20260502230040 | 52 | 301 | 7.0 | 12.0 | 0.00 | 0.00 | 0.00 | 93 | 1011.9 |
| 20260502225528 | 52 | 307 | 7.0 | 12.0 | 0.00 | 0.00 | 0.00 | 93 | 1012.0 |
| 20260502225029 | 52 | 286 | 7.0 | 13.0 | 0.00 | 0.00 | 0.00 | 93 | 1012.2 |
| 20260502224547 | 52 | 277 | 7.0 | 13.0 | 0.00 | 0.00 | 0.00 | 93 | 1012.3 |
| 20260502224026 | 52 | 318 | 7.0 | 12.0 | 0.00 | 0.00 | 0.00 | 93 | 1012.2 |
| 20260502223524 | 52 | 290 | 6.0 | 11.0 | 0.00 | 0.00 | 0.00 | 93 | 1012.4 |
| 20260502223044 | 52 | 340 | 6.0 | 11.0 | 0.00 | 0.00 | 0.00 | 93 | 1012.5 |
| 20260502222524 | 52 | 305 | 5.0 | 13.0 | 0.00 | 0.00 | 0.00 | 93 | 1012.7 |
| 20260502222023 | 52 | 302 | 7.0 | 13.0 | 0.00 | 0.00 | 0.00 | 93 | 1012.6 |